Weather Roundup
Issued by NWS Chicago, IL

Home | Current Version | Previous Version | Text Only | Print | Product List | Glossary Off
Versions: 1 2 3 4 5 6 7 8 9 10 11 12 13 14 15 16 17 18 19 20 21 22 23 24 25 26 27 28 29 30 31 32 33 34 35 36 37 38 39 40 41 42 43 44 45 46 47 48 49 50

000
NZUS59 KLOT 241603
HRRLOT

CHICAGO AREA WEATHER ROUNDUP
NATIONAL WEATHER SERVICE CHICAGO/ROMEOVILLE IL
1100 AM CDT TUE APR 24 2018

NOTE: "FAIR" INDICATES FEW OR NO CLOUDS BELOW 12,000 FEET WITH NO
SIGNIFICANT WEATHER AND/OR OBSTRUCTIONS TO VISIBILITY.

* THESE STATIONS ARE NOT UNDER NWS QUALITY CONTROL. THEY ALSO MAY NOT
  REPORT WEATHER SUCH AS PRECIPITATION OR FOG.

ILZ005-006-012>014-019>023-241700-
NORTHEAST ILLINOIS

CITY           SKY/WX    TMP DP  RH WIND       PRES   REMARKS
OHARE          PTSUNNY   59  46  62 N7        30.04F
MIDWAY         PTSUNNY   59  48  67 NE8       30.04F
AURORA           N/A     62  50  64 NE10      30.04F
LANSING*         N/A     59  52  78 N9        30.04S
JOLIET*        CLOUDY    63  51  65 E6        30.04S
WAUKEGAN         N/A     57  46  66 E9        30.05F
DUPAGE AIRPORT   N/A     60  49  66 NE7       30.04F
WHEELING         N/A     59  46  62 NE7       30.07S
KANKAKEE*      CLOUDY    58  51  79 N9        30.03F
MORRIS*        PTSUNNY   61  48  63 N7        30.03F
LEWIS AIRPORT* CLOUDY    62  49  62 E9        30.04S
NORTHERLY ISL    N/A     53  45  74 N9          N/A
$$

WIZ051-052-058>065-066-070>072-241700-
SOUTHEAST WISCONSIN

CITY           SKY/WX    TMP DP  RH WIND       PRES   REMARKS
MILWAUKEE      PTSUNNY   54  35  48 NE8       30.08F
KENOSHA*       PTSUNNY   59  44  57 N6        30.06F
RACINE*        CLOUDY    52  34  50 N8        30.09S
BURLINGTON       N/A     61  36  39 NE6       30.05F
WAUKESHA       SUNNY     59  28  31 NE10      30.07F
WEST BEND        N/A     63  27  25 NE9       30.06F
$$

INZ001>003-010>013-019-020-241700-
NORTHWEST INDIANA

CITY           SKY/WX    TMP DP  RH WIND       PRES   REMARKS
GARY*          PTSUNNY   54  46  76 VRB5      30.05F
MICHIGAN CITY* NOT AVBL
RENSSELAER*    NOT AVBL
VALPARAISO     CLOUDY    61  52  72 E9        30.03S
$$

LMZ740>746-241700-
SOUTHERN LAKE MICHIGAN

STATION/POSITION TIME  SKY/WX   TEMP WIND        PRES    VSBY
                                AIR  DIR/SP/G
                 (UTC)          (F)  (DEG/KT/KT) (MB)    (MI)
HARRISON CRIB    1540            42  350/ 10/ 10   N/A
BURNHAM HARBOR   1600            53   30/  6/ 11   N/A
CALUMET HARBOR   1530            48  330/ 10/ 13 1017.3F
BURNS HARBOR     1540            44   CALM  /  3 1017.9F
MICHIGAN CITY    1540            47   10/  9/ 10   N/A
$$

ABBREVIATIONS USED IN REMARKS
   TC - TEMPERATURE IN CELSIUS
  WCI - WIND CHILL INDEX
   HX - HEAT INDEX
  VSB - VISIBILITY
$$



USA.gov is the U.S. government's official web portal to all federal, state and local government web resources and services.